sat.trackr.live / text

‹ back to catalog

STARLINK-35144

NORAD 65538 · 2025-200U

PAYLOAD ACTIVE UNKNOWN

§ Identity

Operator
Country
US
Launch date
2025-09-06
Launch site
AFWTR
Launch vehicle
Mass (kg)
RCS (m²)

Purposes: comms

External: N2YO · Heavens-Above · Gunter

§ Orbital elements

Epoch: 2026-09-19T11:08:04.311456Z

Period
93.91 min
Inclination
97.2884°
Eccentricity
0.0000762
Mean motion
15.33435033 rev/d
Perigee alt
465.1 km
Apogee alt
466.1 km
Semi-major
6,843.7 km
B*
4.7332e-4
RAAN
328.8807°
Arg perigee
81.9166°
Mean anomaly
278.2164°
Rev number
5,848

§ Raw data

STARLINK-351441 65538U 25200U   26262.46393879  .00015231  00000+0  47332-3 0  99962 65538  97.2884 328.8807 0000762  81.9166 278.2164 15.33435033 58484

JSON: /api/v1/satellites/65538 · /tle

For live sub-satellite position, see the globe view (requires WebGL).

§ Visibility from observer

Set your observer location to see the next 7 days of passes ≥ 10°. The values pass through the URL so the page stays shareable.

No JS? Fill the form by hand. The geolocation button needs JavaScript.